Regional Weather Roundup
Issued by NWS

Home | Current Version | Previous Version | Text Only | Print | Product List | Glossary Off
Versions: 1 2 3 4 5 6 7 8 9 10 11 12 13 14 15 16 17 18 19 20 21 22 23 24 25 26 27 28 29 30 31 32 33 34 35 36 37 38 39 40 41 42 43 44 45 46 47 48 49 50

000
ASUS43 KMPX 241801
RWRMN
WEATHER ROUNDUP FOR MINNESOTA
NATIONAL WEATHER SERVICE TWIN CITIES/CHANHASSEN MN
100 PM CDT MON APR 24 2017


NOTE: "FAIR" INDICATES FEW OR NO CLOUDS BELOW 12,000 FEET WITH NO
SIGNIFICANT WEATHER AND/OR OBSTRUCTIONS TO VISIBILITY. N/A MEANS
CURRENT SKY AND/OR WEATHER CONDITIONS ARE NOT AVAILABLE.

MNZ060>063-068>070-241900-
   Twin Cities Metro

CITY           SKY/WX    TMP DP  RH WIND       PRES   REMARKS
TWIN CITIES    CLOUDY    66  32  28 S22G30    29.70F
6HR MIN TEMP:  53; 6HR MAX TEMP:  66;

ST PAUL        CLOUDY    67  34  29 S20G31    29.70F
CRYSTAL        CLOUDY    65  31  28 S20G35    29.68F
BLAINE         CLOUDY    66  34  30 S18G28    29.69F
LAKEVILLE      CLOUDY    64  36  34 S20       29.70F
EDEN PRAIRIE   CLOUDY    70  35  27 S20G30    29.68F
6HR MIN TEMP:  52; 6HR MAX TEMP:  70;

SOUTH ST PAUL  CLOUDY    67  33  28 S16G24    29.71F
LAKE ELMO      FAIR      66  34  30 S23G32    29.72F
$$
MNZ001>005-007-008-013>017-022>024-027-028-241900-
   Northwest Minnesota

CITY           SKY/WX    TMP DP  RH WIND       PRES   REMARKS
BEMIDJI        CLOUDY    45  35  67 E13       29.62F
HALLOCK        SNOW      34  32  93 NE10      29.69F VSB 1/2 WCI  26
ROSEAU         LGT SNOW  34  28  80 E10       29.73F WCI  26
WARROAD        CLOUDY    34  28  80 E18G25    29.75R WCI  23
THIEF RVR FALL LGT RAIN  36  32  85 E22       29.62F
CROOKSTON      MIX PCPN  37  37 100 E13G21    29.62F
FOSSTON        DRIZZLE   46  36  66 E10       29.59F
DETROIT LAKES  CLOUDY    54  39  58 SE8       29.55F
MOORHEAD       CLOUDY    55  43  62 SE6       29.54F
PARK RAPIDS    CLOUDY    54  36  50 E9        29.57F
MAHNOMEN       CLOUDY    46  38  75 E12       29.56F
$$
MNZ006-009>011-018-025>026-241900-
   North Central Minnesota

CITY           SKY/WX    TMP DP  RH WIND       PRES   REMARKS
BAUDETTE       CLOUDY    35  27  72 E21G26    29.73F WCI  24
FLAG ISLAND    SNOW      30  28  93 E15G24    29.74F VSB 1/2 WCI  19
INTL FALLS     CLOUDY    37  26  64 E23G32    29.76F
6HR MIN TEMP:  31; 6HR MAX TEMP:  37; 6HR PCP: TRACE;

WASKISH        CLOUDY    37  30  75 E14G22    29.70S
BIG FORK       CLOUDY    46  34  61 E13G21    29.70F
LONGVILLE      CLOUDY    52  37  58 E6        29.63F
GRAND RAPIDS   CLOUDY    46  32  58 SE10G22   29.70F
CRANE LAKE     CLOUDY    39  28  65 E3        29.83F
ORR            CLOUDY    41  28  60 MISG      29.74F
COOK           MOSUNNY   43  32  65 E10G20    29.76F
WALKER         MOCLDY    46  37  70 E9        29.62F
$$
MNZ012-019>021-037-241900-
   Northeast Minnesota

CITY           SKY/WX    TMP DP  RH WIND       PRES   REMARKS
DULUTH         CLOUDY    39  29  67 E22G29    29.79F
6HR MIN TEMP:  32; 6HR MAX TEMP:  41;

ELY            CLOUDY    37  27  65 E17G23    29.81F
HIBBING        CLOUDY    45  32  60 SE15      29.74F
EVELETH        CLOUDY    43  25  49 SE16G22   29.78F
DULUTH HARBOR  CLOUDY    37  34  87 NE28      29.83F
TWO HARBORS    CLOUDY    39  30  70 E24G33    29.82F
SILVER BAY     PTSUNNY   37  30  75 NE20G33   29.86F
GRAND MARAIS     N/A     37  31  78 NE22G36   29.95F
G MARAIS ARPRT CLOUDY    32  25  74 E18G30    29.91F WCI  20
$$
MNZ029>031-032-039>041-046>048-054>057-064-241900-
   West Central Minnesota

CITY           SKY/WX    TMP DP  RH WIND       PRES   REMARKS
FERGUS FALLS   CLOUDY    63  39  42 S21G28    29.52F
WHEATON        CLOUDY    61  36  39 S13G20    29.54F
MORRIS         CLOUDY    63  39  42 S23G30    29.54F
ALEXANDRIA     CLOUDY    61  36  39 S26G35    29.58F
ELBOW LAKE     FAIR      60  38  44 S26       29.55F
WADENA         PTSUNNY   63  39  42 S20G29    29.55F
GLENWOOD       CLOUDY    63  37  39 S31       29.59F
APPLETON       PTSUNNY   63  36  36 S20G25    29.56S
BENSON         CLOUDY    66  28  24 SW18G30   29.58F
ORTONVILLE     CLOUDY    63  39  42 S17G24    29.54F
MADISON        CLOUDY    66  39  37 S20G28    29.54F
WILLMAR        FAIR      66  36  32 S8G18     29.61F
$$
MNZ033>034-036-042>043-049>051-058-059-241900-
   Central Minnesota

CITY           SKY/WX    TMP DP  RH WIND       PRES   REMARKS
ST CLOUD       CLOUDY    62  32  32 S20G31    29.64F
6HR MIN TEMP:  38; 6HR MAX TEMP:  63;

SAUK CENTRE    FAIR      61  38  43 S24G32    29.60F
PAYNESVILLE    CLOUDY    62  32  31 S15G25    29.63F
AITKIN         CLOUDY    61  36  39 SE13G21   29.63F
PINE RIVER     CLOUDY    57  43  58 E15       29.64F
BRAINERD       CLOUDY    63  36  36 S20G28    29.62F
STAPLES        CLOUDY    63  36  36 S17G28    29.59F
LONG PRAIRIE   CLOUDY    61  37  41 SE29G36   29.60F
LITTLE FALLS   CLOUDY    61  32  33 S16G22    29.62F
LITCHFIELD     CLOUDY    64  37  36 S7G16     29.64F
BUFFALO        CLOUDY    64  31  28 SE13G24   29.67F
MAPLE LAKE     CLOUDY    64  36  34 S13G22    29.66F
HUTCHINSON     CLOUDY    68  36  31 S20G26    29.65F
$$
MNZ037-044-045-052-053-241900-
   East Central Minnesota

CITY           SKY/WX    TMP DP  RH WIND       PRES   REMARKS
PRINCETON      CLOUDY    64  32  29 S12G22    29.67F
MORA           CLOUDY    63  32  31 S18G24    29.70F
CAMBRIDGE      CLOUDY    68  43  40 S22G28    29.66F
RUSH CITY      CLOUDY    67  34  29 S14G26    29.70F
MOOSE LAKE     CLOUDY    48  32  53 E12G18    29.70F
HINCKLEY       FAIR      63  37  39 S17G24    29.70F
CLOQUET        CLOUDY    39  27  60 E18G24    29.76F
MCGREGOR       CLOUDY    52  36  54 E14G24    29.70F
$$
MNZ071>073-080-081-089-090-097-098-241900-
   Southwest Minnesota

CITY           SKY/WX    TMP DP  RH WIND       PRES   REMARKS
MONTEVIDEO     CLOUDY    64  37  36 SW13G28   29.57F
GRANITE FALLS  CLOUDY    65  38  36 S22G31    29.59F
CANBY          CLOUDY    65  36  35 S14G23    29.57F
MARSHALL       CLOUDY    63  37  38 S21G38    29.58S
REDWOOD FALLS  PTSUNNY   67  29  24 S28G37    29.60F
OLIVIA         CLOUDY    70  34  26 S21G29    29.60F
PIPESTONE      CLOUDY    55  34  44 S17       29.57F
WINDOM         CLOUDY    64  27  24 S17G32    29.62S
WORTHINGTON    LGT RAIN  58  34  40 S28G36    29.59F
JACKSON        CLOUDY    63  28  27 S25G33    29.64F
TRACY          CLOUDY    63  34  33 S20G28    29.59F
SLAYTON        CLOUDY    59  33  36 S21G33    29.60F
$$
MNZ065>067-074>077-082>085-091>093-241900-
   South Central Minnesota

CITY           SKY/WX    TMP DP  RH WIND       PRES   REMARKS
MANKATO        CLOUDY    68  31  25 S18G33    29.66F
NEW ULM        PTSUNNY   66  34  30 S24G32    29.62F
ST JAMES       CLOUDY    66  30  26 S22G33    29.64F
FAIRMONT       CLOUDY    68  30  24 S36G43    29.63F
GLENCOE        CLOUDY    70  38  30 SE21G26   29.65F
FARIBAULT      CLOUDY    66  34  30 SE24G31   29.71F
OWATONNA       CLOUDY    68  30  24 S20G32    29.71F
WASECA         CLOUDY    68  32  26 SE25G35   29.70F
ALBERT LEA     CLOUDY    68  21  17 S17G35    29.70F
$$
MNZ078>079-086>088-094>096-241900-
   Southeast Minnesota

CITY           SKY/WX    TMP DP  RH WIND       PRES   REMARKS
ROCHESTER      PTSUNNY   67  30  25 S26G37    29.76F
6HR MIN TEMP:  46; 6HR MAX TEMP:  67;

RED WING       CLOUDY    68  27  21 S13G22    29.73F
STANTON        CLOUDY    67  31  26 S21G32    29.70F
DODGE CENTER   CLOUDY    66  30  26 S30G39    29.73F
WINONA         PTSUNNY   70  34  26 S9G22     29.79F
AUSTIN         CLOUDY    66  27  22 S20G33    29.73F
PRESTON        CLOUDY    67  30  25 S25G33    29.78F
$$
ABBREVIATIONS USED IN REMARKS
   TC - TEMPERATURES IN CELSIUS
  WCI - WIND CHILL INDEX
   HX - HEAT INDEX
  VSB - VISIBILITY
$$



USA.gov is the U.S. government's official web portal to all federal, state and local government web resources and services.